Location: Invercargill
(46.4000°S, 168.3500°E)
Time: 19:26:11
(UTC+12:00)

DMSP B5D2-2 - Pass Details

Date: 14 May 2021
Orbit: 790 x 805 km, 98.3° (Epoch: 14 June)

Event Time Altitude Azimuth Distance (km) Brightness Sun altitude
Rises 19:19:31 0° 8° (N) 3,309 7.3 -19.6°
Reaches altitude 10° 19:21:52 10° 4° (N) 2,384 6.6 -20.0°
Maximum altitude 19:27:07 66° 282° (WNW) 881 4.5 -20.9°
Drops below altitude 10° 19:32:25 10° 199° (SSW) 2,406 6.7 -21.8°
Sets 19:34:47 0° 196° (SSW) 3,341 7.5 -22.3°
